Location: *
(31.2983°S, 151.4094°E)
Time: 12:14:08
(UTC+00:00)

Cosmos 2297 - Pass Details

Date: 28 November 2019
Orbit: 835 x 860 km, 71.0° (Epoch: 06 December)

Event Time Altitude Azimuth Distance (km) Brightness Sun altitude
Exits shadow 12:53:12 29° 154° (SSE) 1,507 5.3 -36.1°
Drops below altitude 10° 12:55:51 10° 157° (SSE) 2,470 6.7 -36.2°
Sets 12:58:18 0° 158° (SSE) 3,411 7.5 -36.3°
